Starlink 3306

operational
NORAD ID: 50163 Int'l Des: 2021-125 Owner: SPXS Country: US Constellation: starlink
LEOCIRCULAR

关于 Starlink 3306

正在加载描述...

实时位置

正在加载3D地球...

即将过境

高度历史

Altitude vs Time

uPlot chart will show altitude changes over time

两行轨道根数

1 50163U 21125H 25352.14740164 .00000084 00000-0 23391-4 0 9994
2 50163 53.2166 245.1665 0001540 85.1416 274.9752 15.08837452224427
Epoch: Dec 18, 2025 • Age: 21 hours

当前状态

高度 541.5 km
速度 7.60 km/s
星下点 34.41°N, 69.33°W
发射日期 Dec 18, 2021
运行时间 4 years
类型 internet

技术详情

分类 Payload
质量 290.00 kg
干质量 270.00 kg
总质量 290.00 kg
长度 0.20 m
直径 2.80 m
跨度 9.00 m
形状 Box + pan
制造商 SPXS
平台类型 Starlink
阶段状态 In Orbit
所有者/国家 SPXS/US

大型星座

Loading constellations...